Location: Petrozavodsk
(61.7955°N, 34.3748°E)
Time: 02:40:37
(UTC+03:00)

Envisat - Pass Details

Date: 29 March 2023
Orbit: 763 x 765 km, 98.2° (Epoch: 28 May)

Event Time Altitude Azimuth Distance (km) Brightness Sun altitude
Rises 04:56:54 0° 18° (NNE) 3,250 7.0 -9.7°
Reaches altitude 10° 04:59:15 10° 21° (NNE) 2,319 6.2 -9.5°
Maximum altitude 05:04:21 69° 105° (ESE) 826 3.4 -9.0°
Drops below altitude 10° 05:09:25 10° 189° (S) 2,303 5.2 -8.4°
Sets 05:11:43 0° 191° (SSW) 3,226 5.9 -8.2°
